This is the latest recevied weather packets stored in our database for station/object N5ATR. If no packets are shown the sender has not sent any weather packets the latest 10 day(s).
| Time | Temp. | Humidity | Pressure | Rain* | Wind** | Luminosity | Snow |
|---|---|---|---|---|---|---|---|
| 1788396421 | 26.67° C | 30% | 1021.3 hPa | 0 mm | - | 25 W/m² | - |
| 1788396115 | 26.67° C | 30% | 1021.3 hPa | 0 mm | - | 26 W/m² | - |
| 1788395811 | 26.11° C | 31% | 1021.4 hPa | 0 mm | - | 28 W/m² | - |
| 1788395506 | 27.22° C | 30% | 1021.3 hPa | 0 mm | - | 25 W/m² | - |
| 1788395202 | 27.22° C | 29% | 1021.4 hPa | 0 mm | - | 33 W/m² | - |
| 1788394896 | 27.22° C | 29% | 1021.4 hPa | 0 mm | - | 38 W/m² | - |
| 1788394591 | 27.22° C | 29% | 1021.4 hPa | 0 mm | - | 56 W/m² | - |
| 1788394291 | 27.22° C | 29% | 1021.5 hPa | 0 mm | - | 74 W/m² | - |
| 1788393987 | 27.22° C | 29% | 1021.8 hPa | 0 mm | - | 33 W/m² | - |
| 1788393686 | 27.78° C | 28% | 1021.5 hPa | 0 mm | - | 95 W/m² | - |
| 1788393385 | 28.33° C | 28% | 1021.5 hPa | 0 mm | - | 113 W/m² | - |
| 1788393081 | 28.33° C | 28% | 1021.8 hPa | 0 mm | - | 138 W/m² | - |
| 1788392780 | 28.33° C | 27% | 1021.7 hPa | 0 mm | - | 158 W/m² | - |
| 1788392478 | 27.78° C | 27% | 1021.7 hPa | 0 mm | - | 162 W/m² | - |
| 1788392174 | 28.33° C | 26% | 1021.7 hPa | 0 mm | - | 203 W/m² | - |
| 1788391868 | 28.33° C | 26% | 1021.7 hPa | 0 mm | - | 217 W/m² | - |
| 1788391562 | 28.33° C | 27% | 1021.9 hPa | 0 mm | - | 229 W/m² | - |
| 1788391262 | 28.33° C | 27% | 1021.9 hPa | 0 mm | - | 245 W/m² | - |
| 1788390962 | 28.33° C | 27% | 1021.8 hPa | 0 mm | - | 261 W/m² | - |
| 1788390662 | 28.33° C | 26% | 1022.3 hPa | 0 mm | - | 280 W/m² | - |
| 1788390362 | 28.33° C | 27% | 1021.9 hPa | 0 mm | - | 298 W/m² | - |
| 1788390061 | 27.78° C | 27% | 1022 hPa | 0 mm | - | 316 W/m² | - |
| 1788389756 | 27.78° C | 28% | 1022.2 hPa | 0 mm | - | 250 W/m² | - |
| 1788389455 | 28.89° C | 27% | 1022.2 hPa | 0 mm | - | 346 W/m² | - |
| 1788389154 | 28.89° C | 26% | 1022.2 hPa | 0 mm | - | 354 W/m² | - |
* Rain latest hour (hover to see other rain measurements)
** Current wind speed in m/s (hover to see current wind gust speed)